Regional Weather Roundup
Issued by NWS Albany, NY

Home | Current Version | Previous Version | Text Only | Print | Product List | Glossary On
Versions: 1 2 3 4 5 6 7 8 9 10 11 12 13 14 15 16 17 18 19 20 21 22 23 24 25 26 27
000
ASUS41 KALY 022210
RWRALY

NEW YORK STATE HOURLY WEATHER ROUNDUP
NATIONAL WEATHER SERVICE ALBANY NY
500 PM EST FRI DEC 02 2016

NOTE: "FAIR" INDICATES FEW OR NO CLOUDS BELOW 12,000 FEET WITH NO
SIGNIFICANT WEATHER AND/OR NO OBSTRUCTIONS TO VISIBILITY.

NYZ032-033-038>043-046>054-057>066-NYZ062>081-082-084-022300-
EAST


CITY           SKY/WX    TMP DP  RH WIND       PRES   REMARKS
ALBANY         MOCLDY    44  30  57 W9        29.80S
GLENS FALLS    CLOUDY    44  29  55 W8G21     29.76S
POUGHKEEPSIE   CLOUDY    46  29  51 W20G25    29.83S
NEWBURGH       MOCLDY    45  30  57 W17G24    29.85R
MONTGOMERY     MOCLDY    46  29  51 W7        29.84R
WHITE PLAINS   MOCLDY    47  27  45 W15G21    29.85R
ISLIP          MOCLDY    48  28  46 W9        29.85S
NEW YORK CITY  MOCLDY    51  26  37 W22       29.88R
CENTRAL PARK   PTCLDY    49  26  41 W9G24     29.90R
$$

NYZ005>009-017-018-044>046-055-056-022300-
CENTRAL


CITY           SKY/WX    TMP DP  RH WIND       PRES   REMARKS
FULTON         LGT RAIN  41  31  67 W22G30    29.83R
SYRACUSE       CLOUDY    41  29  62 W23G33    29.83R
ROME           CLOUDY    40  33  76 W13       29.82S WCI  32
ELMIRA         LGT RAIN  40  29  64 W15G28    29.90R WCI  32
BINGHAMTON     CLOUDY    34  31  88 W13       29.84R WCI  25
MONTICELLO     CLOUDY    36  34  93 W7        29.85S WCI  30
$$

NYZ026>034-041>043-087-022300-
NORTH


CITY           SKY/WX    TMP DP  RH WIND       PRES   REMARKS
WATERTOWN      CLOUDY    40  30  67 W16       29.80R WCI  31
FORT DRUM      NOT AVBL
OGDENSBURG     MOCLDY    37  33  84 W7        29.77R WCI  32
MASSENA        CLOUDY    36  31  82 W9        29.76R WCI  29
SARANAC LAKE   LGT SNOW  32  30  92 VRB3      29.67R VSB 1
PLATTSBURGH    CLOUDY    37  35  92 CALM      29.72R
$$

NYZ001>004-010>016-019>021-085-022300-
WEST


CITY           SKY/WX    TMP DP  RH WIND       PRES   REMARKS
NIAGARA FALLS  CLOUDY    41  28  60 W17G25    29.92R
BUFFALO        CLOUDY    39  28  64 W15G28    29.92R WCI  31
DUNKIRK        CLOUDY    40  28  62 W15G26    29.98R WCI  32
JAMESTOWN      CLOUDY    34  27  75 W12G22    29.95R WCI  25
WELLSVILLE     CLOUDY    35  29  78 NW20G28   29.90R WCI  24
ROCHESTER      CLOUDY    40  28  62 W16G30    29.88R WCI  31
PENN YAN       CLOUDY    40  26  57 W18G25    29.88R WCI  31
$$

             KEY
       WCI = WIND CHILL INDEX
       VSB = VISIBILITY
       HX  = HEAT INDEX
$$




USA.gov is the U.S. government's official web portal to all federal, state and local government web resources and services.